Weather in Kevyudy

Russia / Republic of Kalmykia     45°50′12″N   44°14′11″E
temp.,
°C
wind,
m/s
gust,
m/s
humid.,
%
clouds,
%
prec.,
mm/h
press.,
hPa
HPBL,
m
26 february, fri
fri2600:00−5w51187100 0.0 1027308
03:00−3w61883100 0.0 1025569
06:00+1w91791100 0.2 1024639
09:00+2wnw81698100 1.3 1023538
12:00+2w818100100 0.8 1023568
15:00+3w81699100 0.9 1022576
18:00+3w71696100 0.1 1022465
21:00+3w8169599 0.1 1021452
27 february, sat
sat2700:00+3w7169597 0.0 1020482
03:00+3w7159499 0.0 1019428
06:00+3w61494100 0.0 1018445
09:00+3w71790100 0.0 1018567
12:00+4w61488100 0.0 1016561
15:00+4wsw51489100 0.0 1015551
18:00+4wsw51589100 0.1 1014476
21:00+4wsw61689100 0.1 1013527
28 february, sun
sun2800:00+4w7158999 0.1 1013540
03:00+3w51195100 0.1 1013289
06:00+1nw4798100 0.1 1014193
09:00+2wnw3595100 0.1 1015229
12:00+3wnw5686100 0.1 1015614
15:00+4nw5676100 0.1 1016931
18:00+2wnw3684100 0.0 1017162
21:00+1wnw3391100 0.1 101968
1 march, mon
mon100:000wnw3595100 0.0 1020109
03:00+1wnw359896 0.0 1021256
06:000wnw3596100 0.1 1022231
09:00+1wnw4689100 0.1 1024514
12:00+2nw3585100 0.1 1025548
15:00+4nw4571100 0.2 1025917
18:00+1n238483 0.0 102663
21:000n228188 0.0 102962
2 march, tue
tue200:00−1ne128378 0.0 102921
03:00−2nnw118269 0.0 103021
06:00−2nnw128059 0.0 103128
09:000nw126930 0.0 1031458
12:00+3wnw345954 0.0 10301043
15:00+3w556270 0.0 10281098
18:00+1w367467 0.0 1026108
21:00+1wsw497483 0.0 1026358